Location: Kingston, Ontario, Canada
(44.2796°N, 76.5445°W)
Time: 06:21:24
(UTC-05:00)

ISS - Visible Passes

Search period start: 29 November 2022 00:00
Search period end: 09 December 2022 00:00
Orbit: 411 x 420 km, 51.6° (Epoch: 29 November)

Date Brightness Start Highest point End Pass type
(mag) Time Alt. Az. Time Alt. Az. Time Alt. Az.
29 Nov -2.4 18:04:25 10° NW 18:07:16 26° N 18:07:19 26° NNE visible
30 Nov -2.3 17:15:38 10° NW 17:18:23 23° N 17:20:38 13° NE visible
30 Nov -1.4 18:52:20 10° NW 18:53:32 20° NW 18:53:32 20° NW visible
01 Dec -3.1 18:03:37 10° NW 18:06:46 38° NNE 18:06:54 37° NNE visible
02 Dec -2.7 17:14:53 10° NW 17:17:52 29° NNE 17:20:21 13° ENE visible
02 Dec -1.8 18:51:29 10° WNW 18:53:14 28° WNW 18:53:14 28° WNW visible
03 Dec -3.9 18:02:40 10° WNW 18:06:00 75° NNE 18:06:49 47° ESE visible
04 Dec -3.5 17:13:52 10° NW 17:17:08 49° NNE 17:20:22 10° ESE visible
04 Dec -1.7 18:50:51 10° W 18:53:30 26° SW 18:53:30 26° SW visible
05 Dec -2.7 18:01:45 10° WNW 18:04:57 44° SW 18:07:31 14° SSE visible
06 Dec -3.6 17:12:47 10° WNW 17:16:07 75° SSW 17:19:25 10° SE visible
06 Dec -0.4 18:51:39 10° WSW 18:52:16 10° SW 18:52:54 10° SW visible
07 Dec -0.8 18:01:15 10° W 18:03:34 18° SW 18:05:53 10° S visible
08 Dec -1.6 17:11:50 10° WNW 17:14:47 29° SW 17:17:43 10° SSE visible
